User: anonymous   Login
Location: Unspecified
(0.0000°N, 0.0000°E)
Time: 10:09:32
(UTC+00:00)
Language:

Transit 2A Rocket - Orbit

View from above orbital plane
View from above orbital plane
View from above satellite
View from above satellite

Ground track
Ground track

The orbit data is extracted from the following two-line orbital elements,

1 00047U 60007C   16238.18658888 -.00000008  00000-0  23334-4 0  9994
2 00047  66.6648 277.1140 0235278 242.5381 115.1626 14.41849768934384
Epoch (UTC): 25 August 2016 04:28:41
Eccentricity: 0.0235278
inclination: 66.6648°
perigee height: 584 km
apogee height: 920 km
right ascension of ascending node: 277.1140°
argument of perigee: 242.5381°
revolutions per day: 14.41849768
mean anomaly at epoch: 115.1626°
orbit number at epoch: 93438

The dashed part of the orbit path shows where the satellite is in the earth's shadow,  

DLR